Location: Boda
(47.1872°N, 9.5454°E)
Time: 09:54:27
(UTC+00:00)

USA 32 - Pass Details

Date: 14 May 2021
Orbit: 779 x 781 km, 85.0° (Epoch: 13 June)

Event Time Altitude Azimuth Distance (km) Brightness Sun altitude
Rises 02:45:05 0° 356° (N) 3,279 7.8 -9.4°
Reaches altitude 10° 02:47:28 10° 359° (N) 2,347 7.1 -9.1°
Maximum altitude 02:52:44 69° 83° (E) 835 4.4 -8.5°
Drops below altitude 10° 02:57:56 10° 167° (SSE) 2,329 6.3 -7.8°
Sets 03:00:18 0° 169° (S) 3,253 7.0 -7.5°
